Home > Weather > Aalborg > Past weeks

Flag for Denmark Past Weather in Aalborg, Denmark — Yesterday and Last 2 Weeks

Now
70 °F

Partly sunny.


Feels Like: 70 °F
Forecast: 55 / 69 °F
Wind: 24 mph from West

Location: Aalborg Airport

Current Time: Aug 26, 2016 at 4:04:35 PM

Latest Report: Aug 26, 2016 at 3:20 PM


Visibility: N/A

Pressure: 29.89 "Hg

Humidity: 83%

Dew Point: 64 °F

Location of AalborgLocation

Past Weather in Aalborg — Graph

°F

Aalborg Temperature Yesterday

Maximum temperature yesterday: 84 °F (at 4:20 PM)
Minimum temperature yesterday: 61 °F (at 5:20 AM)
Average temperature yesterday: 73 °F

High & Low Weather Summary for the Past Weeks

 TemperatureHumidityPressure
High84 °F (Aug 25, 4:20 PM)100% (Aug 12, 2:20 PM)30.30 "Hg (Aug 12, 2:20 PM)
Low48 °F (Aug 17, 4:20 AM)43% (Aug 16, 6:20 PM)29.77 "Hg (Aug 20, 2:20 PM)
Average63 °F81%30.00 "Hg
* Reported Aug 11 2:20 PM — Aug 26 2:50 PM, Aalborg, Weather by CustomWeather, © 2016

Note: Actual official high and low records may vary slightly from our data, if they occured in-between our weather recording intervals... More about our weather records

Advertising

Aalborg Weather History for the Previous 24 Hours

Scroll right to see more
 ConditionsComfort  
Time TempWeatherWind HumidityBarometerVisibility
2:50 PM
Fri, Aug 26
72 °FPartly sunny.28 mph78%29.89 "Hg5 mi
2:20 PM75 °FPassing clouds.24 mph74%29.86 "Hg4 mi
1:50 PM79 °FScattered clouds.20 mph61%29.83 "HgN/A
1:20 PM79 °FScattered clouds.23 mph61%29.83 "HgN/A
12:50 PM81 °FSunny.17 mph62%29.83 "Hg10 mi
12:20 PM81 °FSunny.16 mph62%29.83 "Hg10 mi
11:50 AM81 °FSunny.12 mph58%29.83 "Hg10 mi
11:20 AM81 °FPartly sunny.10 mph58%29.80 "HgN/A
10:50 AM79 °FSunny.8 mph61%29.83 "Hg10 mi
10:20 AM77 °FPassing clouds.7 mph61%29.83 "HgN/A
9:50 AM75 °FSunny.7 mph69%29.83 "Hg10 mi
9:20 AM73 °FSunny.6 mph69%29.83 "Hg10 mi
8:50 AM72 °FPassing clouds.5 mph73%29.83 "HgN/A
8:20 AM70 °FSunny.3 mph73%29.83 "Hg10 mi
7:50 AM68 °FSunny.No wind78%29.86 "Hg10 mi
7:20 AM64 °FSunny.1 mph88%29.86 "Hg10 mi
6:50 AM63 °FClear.3 mph94%29.86 "Hg10 mi
6:20 AM63 °FClear.2 mph94%29.86 "Hg10 mi
5:50 AM63 °FClear.6 mph88%29.86 "Hg10 mi
5:20 AM63 °FClear.6 mph88%29.89 "Hg10 mi
4:20 AM63 °FClear.3 mph94%29.89 "Hg10 mi
3:50 AM63 °FClear.6 mph94%29.89 "Hg10 mi
3:20 AM64 °FClear.6 mph88%29.89 "Hg10 mi
2:50 AM64 °FClear.6 mph88%29.92 "Hg10 mi
2:20 AM64 °FClear.5 mph88%29.92 "Hg10 mi
1:50 AM66 °FClear.6 mph83%29.95 "Hg10 mi
1:20 AM66 °FClear.5 mph88%29.95 "Hg10 mi
12:50 AM66 °FClear.5 mph88%29.95 "Hg10 mi
12:20 AM70 °FClear.3 mph78%29.95 "Hg10 mi
11:50 PM
Thu, Aug 25
70 °FClear.3 mph78%29.95 "Hg10 mi
11:20 PM70 °FClear.1 mph83%29.95 "Hg10 mi
10:50 PM72 °FClear.2 mph78%29.98 "Hg10 mi
10:20 PM70 °FClear.3 mph83%29.98 "Hg10 mi
9:50 PM73 °FClear.3 mph78%29.98 "Hg10 mi
9:20 PM73 °FSunny.3 mph78%29.98 "Hg10 mi
8:50 PM75 °FSunny.1 mph74%29.98 "Hg10 mi
8:20 PM75 °FSunny.3 mph74%29.98 "Hg10 mi
7:50 PM79 °FSunny.3 mph65%29.98 "Hg10 mi
7:20 PM81 °FSunny.No wind66%29.98 "Hg10 mi
6:50 PM81 °FSunny.1 mph66%29.98 "Hg10 mi
6:20 PM82 °FSunny.3 mph62%29.98 "Hg10 mi
5:50 PM84 °FScattered clouds.1 mph58%30.01 "HgN/A
5:20 PM84 °FScattered clouds.No wind58%30.01 "HgN/A
4:50 PM84 °FScattered clouds.2 mph58%30.01 "HgN/A
4:20 PM84 °FScattered clouds.2 mph58%30.01 "HgN/A
Weather by CustomWeather, © 2016

See weather overviewHow to use our weather pages